363  
ASUS44 KSHV 291110  
RWRSHV  
 
WEATHER ROUNDUP FOR THE FOUR STATE AREA  
NATIONAL WEATHER SERVICE SHREVEPORT LA  
600 AM CDT SAT JUL 29 2017  
 
NOTE: "FAIR" INDICATES FEW OR NO CLOUDS BELOW 12000 FEET  
WITH NO SIGNIFICANT WEATHER AND/OR S TO VISIBILITY
.  
 
!LAZ001-LAZ014-TXZ097-291200  
SHREVEPORT...MONROE...TEXARKANA RADIOS  
 
CITY SKY/WX TMP DP RH WIND PRES REMARKS
 
SHREVEPORT LGT RAIN 78 76 93 NE5 29.89R  
MONROE LGT RAIN 77 74 90 NW10 29.89R  
NATCHITOCHES CLOUDY 78 77 95 CALM 29.86R  
TEXARKANA CLOUDY 76 76 100 CALM 29.89R  

 
 
!LAZ001-LAZ014-TXZ097-291200  
OTHER LOCATIONS...  
 
CITY SKY/WX TMP DP RH WIND PRES REMARKS
 
DOWNTOWN SHV LGT RAIN 78 74 87 NE7 29.90R  
BOSSIER CITY CLOUDY 76 76 99 CALM 29.89R  
RUSTON CLOUDY 74 73 95 N5 29.94R  
LITTLE ROCK PTCLDY 74 73 97 NE10 29.91S  
EL DORADO LGT RAIN 75 74 96 CALM 29.90R FOG  
JACKSON CLOUDY 77 76 96 SW5 29.86R  
NEW ORLEANS CLOUDY 79 78 97 SW5 29.88R  
HOUSTON PTCLDY 81 76 84 W5 29.91R  
LUFKIN PTCLDY 77 74 90 SW5 29.89R  
TYLER CLOUDY 82 72 71 W3 29.90R  
DAL FT WORTH CLOUDY 82 65 56 SE5 29.86R  

 
 
!TXZ136-TXZ165-291200  
TYLER...LUFKIN RADIOS  
 
CITY SKY/WX TMP DP RH WIND PRES REMARKS
 
TYLER CLOUDY 82 72 71 W3 29.90R  
GILMER CLOUDY 79 75 87 NE3 29.89R  
LONGVIEW CLOUDY 81 76 84 S3 29.88R  
LUFKIN PTCLDY 77 74 90 SW5 29.89R  

 
 
!TXZ136-TXZ165-291200  
OTHER LOCATIONS...  
 
CITY SKY/WX TMP DP RH WIND PRES REMARKS
 
NACOGDOCHES CLOUDY 79 73 83 W3 29.87R  
BEAUMONT CLEAR 78 77 96 SW5 29.90R  
HOUSTON PTCLDY 81 76 84 W5 29.91R  
COLLEGE STN PTCLDY 79 76 90 SW7 29.91R  
AUSTIN PTCLDY 77 73 87 S5 29.92R  
DAL FT WORTH CLOUDY 82 65 56 SE5 29.86R  
TEXARKANA CLOUDY 76 76 100 CALM 29.89R  
SHREVEPORT LGT RAIN 78 76 93 NE5 29.89R  
FORT POLK CLOUDY 79 76 91 SW5 29.88R  
LAKE CHARLES CLEAR 82 79 90 W7 29.89R  

 
 
 
CLICK HERE TO GO TO PREVIOUS BULLETINS.

The Nexlab LA Page
The Nexlab TX Page
The Nexlab AR Page
The Nexlab OK Page Main Text Page